Погода Мыс Терпения

Погода Мыс Терпения : погода сейчас, прогноз погоды и архив. Всё, что Вы хотите узнать о погоде Мыс Терпения!

Поиск расширенной информации на нашем сайте:

Другие новости

Новости СМИ2

Главная страница сайта

Новости сайта

03.07.2017

Напоминаем, что на нашем специализированном сайте Метеоцентр.Азия вы можете получить высокодетализированные автоматические прогнозы погоды по пунктам России, СНГ и мира в авиационном формате (включающие направление и скорость ветра, видимость, явления погоды, количество и форму облачности, нижнюю и верхнюю границу облачности).

Рекомендуем: Станозолол Где купить Станозолол заказать Stanos пропионат пкт побочные лучший как принимать Купить

Погода Мыс Терпения - сегодня

Время (UTC), дата Ветер
(°,м/с) 
Видим.   Явления Облачность Т
(°С)
Тd
(°С)
f(%) Тe
(°С)
Pmin
(гПа)
dP
(гПа)
Po
(мм)
O2
(г/м3)
Тmin Tmax R s Состояние
почвы
00 23.07.17 170 (Ю) 6-8{08}  0500 м  туман  ?/?  
+10.9 +10.8 99 +11  1010.8  0.2  758  291           
06 23.07.17 150 (ЮВ) 4-5{07}  20000 м  {туман}  10/0 средняя, верхняя 
[Ac As|Ci]
+13.1 +12 93 +17  1009.1  -1  756  288           
09 23.07.17 140 (ЮВ) 4-5{07}  20000 м    8/1 300 м верхняя 
[St|Ci sp]
+10.4 +9.9 97 +11  1008.1  -1  755  291    +13.4       
12 23.07.17 130 (ЮВ) 3-4{06}  0200 м  туман  ?/?  
+9.1 +9 99 +9  1007.6  -0.6  755  293           
15 23.07.17 110 (В) 3-5{06}  н/о    н/о 
+8.7 +8.6 99 +8  1006.3  -1.3  754  293           
18 23.07.17 040 (СВ) 2-2{05}  0200 м  туман  ?/?  
+7.2 +7.2 100 +7  1004.9  -1.4  753  294           
21 23.07.17 040 (СВ) 2-3{05}  0200 м  туман  ?/?  
+7.9 +7.9 100 +8  1003.9  -1  752  293  +6.7    0.4    влажная 
00 24.07.17 020 (С) 4-5{05}  0200 м  туман  ?/?  
+7.7 +7.6 99 +6  1002.8  -1.1  751  293           
03 24.07.17 030 (СВ) 6-7{07}  0200 м  туман  ?/?  
+8.6 +8.5 99 +7  1000.7  -2.1  750  291           
06 24.07.17 330 (СЗ) 3-4{07}  0200 м  туман  ?/?  
+8.3 +8.3 100 +8  1000.5  -0.1  750  292           
09 24.07.17 360 (С) 2-3{04}  0500 м  туман  ?/?  
+8.3 +8.2 99 +8  1000.6  -0.1  750  292    +8.7       
12 24.07.17 050 (СВ) 4-5{06}  0200 м  туман  ?/?  
+8.4 +8.3 99 +7  1000.1  -0.5  749  291           
15 24.07.17 120 (ЮВ) 3-3{09}  н/о    н/о 
+9.4 +9.4 100 +9  1000.7  0.6  750  290           
18 24.07.17 160 (Ю) 3-3{04}  0200 м  туман  ?/?  
+9.4 +9.4 100 +9  1000.5  -0.2  750  290           
21 24.07.17 190 (Ю) 4-5{06}  0200 м  туман  ?/?  
+9.9 +9.8 99 +10  1000.8  0.3  750  290  +7.4    0.3    влажная 
00 25.07.17 170 (Ю) 5-6{07}  0200 м  туман  ?/?  
+11.5 +11.4 99 +13  1000.4  -0.3  750  288           
03 25.07.17 160 (Ю) 5-6{07}  0200 м  туман{ливн. осадки}  ?/?  
+11.5 +11.4 99 +13  999.6  -0.8  749  287           
06 25.07.17 170 (Ю) 4-5{07}  20000 м  в посл. час туман{ливн. осадки}  10/10 600 м 
[Sc]
+12.4 +12.4 100 +17  999.3  -0.4  749  286           
09 25.07.17 140 (ЮВ) 5-7{11}  0500 м  гроза, ливневой дождь  ?/?  
+12.1 +12 99 +15  1000  0.7  749  287    +13  20     
12 25.07.17 130 (ЮВ) 6-9{12}  10 км  гроза, ливневой дождь  10/10 600 м кучево-дожд. 
[Cb cap]
+12.3 +12.2 99 +15  998.6  -1.4  748  286           
15 25.07.17 220 (ЮЗ) 6-7{09}  н/о    н/о 
+13.3 +13.2 99 +18  999.5  0.9  749  285           
18 25.07.17 210 (ЮЗ) 5-6{07}  20000 м  {гроза, ливн. осадки}  4/4 600 м кучево-дожд. 
[Cb cap]
+12.8 +12.8 100 +17  999.5  749  286           
21 25.07.17 200 (Ю) 7-9{09}  20000 м  в посл. час туман  4/4 600 м кучево-дожд. 
[Cb cap]
+13.4 +13.3 99 +18  1001  1.6  750  285  +11      мокрая 
00 26.07.17 210 (ЮЗ) 7-9{10}  20000 м  {туман}  6/3 600 м верхняя 
[Sc|Cc]
+15.3 +15.1 99 +24  1001.4  0.4  750  283           
03 26.07.17 230 (ЮЗ) 7-9{09}  20000 м    8/1 600 м верхняя 
[Sc|Ci]
+15.5 +13.7 89 +21  1002.6  1.2  751  284           
Время (UTC), дата Ветер
(°,м/с) 
Видим.   Явления Облачность Т
(°С)
Тd
(°С)
f(%) Тe
(°С)
Pmin
(гПа)
dP
(гПа)
Po
(мм)
O2
(г/м3)
Тmin Tmax R s Состояние
почвы

Для получения пояснительной информации подведите курсор к названию столбца.

ПОГОДА Мыс Терпения - архив

Всё, что Вы хотите узнать о погоде Мыс Терпения - удобно и подробно!

Выберите нужную дату (начиная с 1 января 2015* года) и нажмите кнопку "Найти".
Будут отображены архивные сводки погоды по пункту Мыс Терпения, начиная с указанной даты.


Отображать данные в формате CSV (для использования в таблицах Excel)


Внимание! Наш архив погоды предназначен исключительно для личного некоммерческого использования в познавательных целях. Если Вам необходимы официальные справки о состоянии погоды (для производственных, юридических, коммерческих и т.п. целей), обращайтесь в органы Росгидромета.

*Примечание: данная дата относится к архиву по метеостанциям СССР (Россия, СНГ, Балтия).
Архив по метеостанциям Зарубежной Европы и Азии (кроме Китая) хранится 10 дней, по другим регионам земного шара (Китай, Африка, Америка, Австралия, Океания) - 1 день.

Мыс Терпения - район местоположения метеостанции


Название, широта, долгота, высота метеостанции:
Мыс Терпения 48.6°ш. 144.7°д. 33 м над ур. моря [Российская Федерация]

Дополнительная информация

В oтличие oт бoльшинства пoгoдных сайтoв мы публикуем пoдрoбную метеoинфoрмацию в детальнoм прoфессиoнальнoм фoрмате.

Характеристики температуры и влажнoсти вoздуха измеряются на высoте 2 м в тени вдали oт зданий и деревьев.
Скoрoсть ветра измеряется на высoте 10 м (на урoвне рoста челoвека скoрoсть ветра ниже в 1.5-2 раза). Если метеoстанция нахoдится в гoрoде или в лесу, тo скoрoсть ветра занижена на 2-4 м/с пo сравнению с oткрытым местoм. Скoрoсть ветра над акватoриями крупных рек и oзёр, а также на вершинах хoлмoв на 2-5 м/с выше, чем в oбычных услoвиях.
Атмoсфернoе давление в разных тoчках местнoсти мoжет значительнo oтличаться oт давления на метеoстанции, в зависимoсти oт услoвий рельефа (при пoдъёме на 10 м давление пoнижается примернo на 1 мм рт.ст.).